Location: Unspecified
(33.6682°S, 0.0000°E)
Time: 03:20:52
(UTC+00:00)

Altair - All Passes

Search period start: 16 June 2019 00:00
Search period end: 26 June 2019 00:00
Orbit: 1501 x 1683 km, 47.2° (Epoch: 14 June)

Date Brightness Start Highest point End Pass type
(mag) Time Alt. Az. Time Alt. Az. Time Alt. Az.
16 Jun - 06:07:44 10° NNE 06:12:51 15° ENE 06:17:52 10° E visible
16 Jun - 08:06:43 10° NW 08:16:26 65° NE 08:25:49 10° ESE daylight
16 Jun - 10:12:08 10° W 10:21:30 51° SSW 10:30:35 10° SE daylight
16 Jun - 12:19:39 10° WSW 12:28:09 35° S 12:36:26 10° ESE daylight
16 Jun - 14:25:34 10° SW 14:34:39 53° SSE 14:43:36 10° ENE daylight
16 Jun - 16:30:29 10° WSW 16:39:27 58° NW 16:48:25 10° NNE daylight
16 Jun - 18:40:07 10° WNW 18:42:44 11° WNW 18:45:23 10° NW visible
17 Jun - 05:43:40 10° NNE 05:47:46 13° ENE 05:51:51 10° E visible
17 Jun - 07:41:38 10° NNW 07:51:17 60° NE 08:00:37 10° ESE daylight
17 Jun - 09:46:46 10° WNW 09:56:14 54° SSW 10:05:25 10° SE daylight
17 Jun - 11:54:17 10° WSW 12:02:48 35° S 12:11:07 10° ESE daylight
17 Jun - 14:00:22 10° SW 14:09:25 51° SSE 14:18:18 10° E daylight
17 Jun - 16:05:16 10° WSW 16:14:21 63° NW 16:23:23 10° NE daylight
17 Jun - 18:13:43 10° W 18:17:43 14° WNW 18:21:43 10° NNW visible
18 Jun - 05:20:07 10° NE 05:22:43 11° ENE 05:25:18 10° ENE visible
18 Jun - 07:16:36 10° NNW 07:26:09 55° NE 07:35:24 10° ESE daylight
18 Jun - 09:21:25 10° WNW 09:30:59 57° SSW 09:40:15 10° SE daylight
18 Jun - 11:28:54 10° WSW 11:37:28 35° S 11:45:50 10° ESE daylight
18 Jun - 13:35:09 10° SW 13:44:10 48° SSE 13:52:59 10° E daylight
18 Jun - 15:40:04 10° WSW 15:49:14 69° NW 15:58:20 10° NE daylight
18 Jun - 17:47:45 10° W 17:52:40 16° WNW 17:57:37 10° NNW visible
19 Jun - 06:51:34 10° NNW 07:01:01 51° NE 07:10:10 10° ESE daylight
19 Jun - 08:56:04 10° WNW 09:05:44 60° SSW 09:15:06 10° SE daylight
19 Jun - 11:03:30 10° WSW 11:12:08 36° S 11:20:32 10° ESE daylight
19 Jun - 13:09:56 10° SW 13:18:54 46° SSE 13:27:39 10° E daylight
19 Jun - 15:14:51 10° SW 15:24:06 75° NW 15:33:16 10° NE daylight
19 Jun - 17:21:59 10° W 17:27:38 18° NW 17:33:18 10° NNW visible
20 Jun - 06:26:35 10° NNW 06:35:53 46° NE 06:44:55 10° ESE visible
20 Jun - 08:30:44 10° WNW 08:40:30 64° SSW 08:49:56 10° SE daylight
20 Jun - 10:38:06 10° WSW 10:46:48 36° S 10:55:16 10° ESE daylight
20 Jun - 12:44:42 10° SW 12:53:37 44° SSE 13:02:19 10° E daylight
20 Jun - 14:49:40 10° SW 14:58:59 80° NW 15:08:10 10° NE daylight
20 Jun - 16:56:21 10° W 17:02:36 21° NW 17:08:51 10° N daylight
21 Jun - 06:01:37 10° NNW 06:10:46 42° NE 06:19:39 10° ESE visible
21 Jun - 08:05:25 10° WNW 08:15:16 68° SSW 08:24:47 10° SE daylight
21 Jun - 10:12:41 10° WSW 10:21:28 37° S 10:30:00 10° ESE daylight
21 Jun - 12:19:27 10° SW 12:28:20 42° SSE 12:36:59 10° E daylight
21 Jun - 14:24:28 10° SW 14:33:50 86° NW 14:43:02 10° NE daylight
21 Jun - 16:30:48 10° WSW 16:37:33 23° NW 16:44:18 10° N daylight
22 Jun - 05:36:42 10° NNW 05:45:39 38° NE 05:54:21 10° ESE visible
22 Jun - 07:40:07 10° WNW 07:50:02 73° SSW 07:59:38 10° SE daylight
22 Jun - 09:47:17 10° WSW 09:56:09 38° S 10:04:45 10° SE daylight
22 Jun - 11:54:12 10° SW 12:03:03 41° SSE 12:11:38 10° E daylight
22 Jun - 13:59:17 10° SW 14:08:41 88° SE 14:17:54 10° NE daylight
22 Jun - 16:05:19 10° WSW 16:12:30 26° NW 16:19:40 10° N daylight
23 Jun - 05:11:49 10° N 05:20:32 35° NE 05:29:01 10° ESE visible
23 Jun - 07:14:50 10° WNW 07:24:49 77° SW 07:34:28 10° SE daylight
23 Jun - 09:21:51 10° W 09:30:49 39° SSW 09:39:31 10° SE daylight
23 Jun - 11:28:55 10° SW 11:37:44 40° SSE 11:46:18 10° E daylight
23 Jun - 13:34:05 10° SW 13:43:32 82° SE 13:52:44 10° NE daylight
23 Jun - 15:39:53 10° WSW 15:47:27 29° NW 15:54:58 10° N daylight
24 Jun - 04:46:59 10° N 04:55:26 32° NE 05:03:40 10° ESE visible
24 Jun - 06:49:34 10° NW 06:59:36 82° SW 07:09:19 10° SE daylight
24 Jun - 08:56:25 10° W 09:05:30 40° SSW 09:14:17 10° SE daylight
24 Jun - 11:03:37 10° SW 11:12:26 39° SSE 11:20:57 10° ESE daylight
24 Jun - 13:08:53 10° SW 13:18:21 77° SE 13:27:33 10° ENE daylight
24 Jun - 15:14:31 10° WSW 15:22:24 32° NW 15:30:12 10° N daylight
25 Jun - 04:22:14 10° N 04:30:19 28° NE 04:38:16 10° ESE visible
25 Jun - 06:24:20 10° NW 06:34:25 88° SW 06:44:09 10° SE visible
25 Jun - 08:30:59 10° W 08:40:10 42° SSW 08:49:04 10° SE daylight
25 Jun - 10:38:19 10° WSW 10:47:06 38° S 10:55:37 10° ESE daylight
25 Jun - 12:43:43 10° SW 12:53:10 72° SSE 13:02:21 10° ENE daylight
25 Jun - 14:49:09 10° WSW 14:57:20 36° NW 15:05:24 10° NNE daylight
